Location: Newark
(49.5647°N, 8.2922°E)
Time: 05:04:57
(UTC+00:00)

Transit 4A - Visible Passes

Search period start: 24 February 2020 00:00
Search period end: 05 March 2020 00:00
Orbit: 872 x 973 km, 66.8° (Epoch: 23 February)

Date Brightness Start Highest point End Pass type
(mag) Time Alt. Az. Time Alt. Az. Time Alt. Az.
24 Feb 10.0 02:04:19 17° N 02:04:19 17° N 02:06:24 10° NNE visible
24 Feb 10.0 03:47:49 10° NNW 03:50:44 14° N 03:53:48 10° NE visible
24 Feb 9.7 05:34:42 10° NNW 05:39:20 23° NNE 05:43:58 10° E visible
25 Feb 10.0 02:13:15 17° N 02:13:15 17° N 02:15:44 10° NNE visible
25 Feb 10.1 03:57:23 10° NNW 04:00:37 15° N 04:03:51 10° NE visible
25 Feb 9.5 05:43:58 10° NNW 05:49:00 29° NE 05:54:03 10° E visible
26 Feb 10.6 00:38:40 11° NNE 00:38:40 11° NNE 00:38:52 10° NNE visible
26 Feb 10.0 02:22:09 16° N 02:22:09 16° N 02:25:10 10° NNE visible
26 Feb 10.1 04:06:56 10° NNW 04:10:28 16° NNE 04:14:01 10° NE visible
27 Feb 10.5 00:47:34 12° NNE 00:47:34 12° NNE 00:48:09 10° NNE visible
27 Feb 10.0 02:31:03 15° NNW 02:31:30 15° N 02:34:44 10° NNE visible
27 Feb 10.0 04:16:22 10° NNW 04:20:18 18° NNE 04:24:15 10° ENE visible
28 Feb 10.4 00:56:27 14° NNE 00:56:27 14° NNE 00:57:25 10° NNE visible
28 Feb 10.1 02:39:56 13° NNW 02:41:23 14° N 02:44:28 10° NNE visible
28 Feb 9.9 04:25:43 10° NNW 04:30:05 21° NNE 04:34:28 10° ENE visible
29 Feb 10.3 01:05:20 15° N 01:05:20 15° N 01:06:44 10° NNE visible
29 Feb 10.1 02:48:49 12° NNW 02:51:16 14° N 02:54:23 10° NE visible
29 Feb 9.7 04:35:01 10° NNW 04:39:47 25° NNE 04:44:36 10° E visible
01 Mar 10.3 01:14:12 15° N 01:14:12 15° N 01:16:06 10° NNE visible
01 Mar 10.2 02:57:49 10° NNW 03:01:09 15° N 03:04:29 10° NE visible
01 Mar 9.4 04:44:17 10° NNW 04:49:27 31° NE 04:54:39 10° E visible
02 Mar 10.2 01:23:03 15° N 01:23:03 15° N 01:25:35 10° NNE visible
02 Mar 10.1 03:07:20 10° NNW 03:11:00 17° NNE 03:14:41 10° NE visible
02 Mar 9.1 04:53:33 10° NNW 04:59:01 39° NE 05:04:33 10° ESE visible
02 Mar 10.6 23:48:23 10° NNE 23:48:23 10° NNE 23:48:27 10° NNE visible
03 Mar 10.2 01:31:52 15° N 01:32:02 15° N 01:35:12 10° NNE visible
03 Mar 10.1 03:16:43 10° NNW 03:20:48 19° NNE 03:24:55 10° ENE visible
03 Mar 8.6 05:02:49 10° NNW 05:08:32 52° NE 05:14:18 10° ESE visible
03 Mar 10.5 23:57:12 12° NNE 23:57:12 12° NNE 23:57:44 10° NNE visible
04 Mar 10.2 01:40:41 13° NNW 01:41:55 14° N 01:44:59 10° NNE visible
04 Mar 9.9 03:26:02 10° NNW 03:30:34 22° NNE 03:35:06 10° ENE visible
04 Mar 8.2 05:12:07 10° NNW 05:17:58 69° NE 05:23:54 10° SE visible
